AAL1040 KACK-KLGA

Flight info

Callsign AAL1040
Flight time N/A
Altitude 16000
Route MVY V146 PUT NELIE VADDR1
Aircraft B738/M-SDE2E3FGHIRWXY/LB1

Departure

Time 2026-05-05 05:23
Airport Nantucket Memorial Airport (KACK)

Arrival

Time N/A
Airport LaGuardia Airport (KLGA)
Time Latitude Longitude Altitude Speed Heading
2026-05-05 05:03 41.25734 -70.06236 64 ft 0 kts 223°
2026-05-05 05:03 41.25735 -70.06236 64 ft 0 kts 223°
2026-05-05 05:07 41.25735 -70.06235 64 ft 0 kts 223°
2026-05-05 05:14 41.25737 -70.06233 45 ft 1 kts 223°
2026-05-05 05:15 41.25750 -70.06217 43 ft 3 kts 223°
2026-05-05 05:15 41.25765 -70.06201 42 ft 3 kts 199°
2026-05-05 05:15 41.25775 -70.06198 45 ft 2 kts 139°
2026-05-05 05:15 41.25777 -70.06200 45 ft 2 kts 136°
2026-05-05 05:19 41.25765 -70.06184 44 ft 4 kts 136°
2026-05-05 05:20 41.25749 -70.06138 45 ft 7 kts 78°
2026-05-05 05:20 41.25788 -70.06074 45 ft 11 kts 44°
2026-05-05 05:20 41.25843 -70.06002 45 ft 11 kts 44°
2026-05-05 05:20 41.25897 -70.05932 45 ft 11 kts 42°
2026-05-05 05:21 41.25946 -70.05861 45 ft 10 kts 57°
2026-05-05 05:21 41.25975 -70.05775 45 ft 10 kts 74°
2026-05-05 05:21 41.25955 -70.05692 43 ft 10 kts 134°
2026-05-05 05:21 41.25892 -70.05662 44 ft 10 kts 194°
2026-05-05 05:22 41.25845 -70.05725 41 ft 10 kts 226°
2026-05-05 05:22 41.25825 -70.05752 43 ft 0 kts 225°
2026-05-05 05:22 41.25779 -70.05812 42 ft 40 kts 225°
2026-05-05 05:23 41.25361 -70.06381 44 ft 130 kts 224°
2026-05-05 05:23 41.24628 -70.07446 480 ft 171 kts 232°
2026-05-05 05:23 41.23909 -70.08792 1421 ft 182 kts 241°
2026-05-05 05:23 41.23274 -70.10307 2238 ft 198 kts 249°
2026-05-05 05:24 41.23371 -70.12152 2834 ft 219 kts 299°
2026-05-05 05:24 41.24437 -70.13783 3068 ft 247 kts 310°
2026-05-05 05:24 41.25565 -70.15551 3772 ft 252 kts 305°
2026-05-05 05:24 41.26566 -70.17436 4642 ft 253 kts 301°
2026-05-05 05:25 41.27480 -70.19453 5450 ft 257 kts 300°
2026-05-05 05:25 41.28427 -70.21473 6331 ft 259 kts 301°
2026-05-05 05:25 41.29305 -70.23598 7018 ft 264 kts 292°
2026-05-05 05:25 41.29983 -70.25846 7905 ft 263 kts 290°
2026-05-05 05:26 41.30626 -70.28150 8611 ft 268 kts 290°
2026-05-05 05:26 41.31270 -70.30489 9429 ft 270 kts 291°
2026-05-05 05:26 41.31954 -70.32834 10175 ft 274 kts 292°
2026-05-05 05:26 41.32722 -70.35242 10469 ft 296 kts 302°
2026-05-05 05:27 41.34193 -70.37305 10665 ft 320 kts 319°
2026-05-05 05:27 41.36303 -70.38368 10658 ft 360 kts 15°
2026-05-05 05:27 41.40081 -70.33671 11581 ft 382 kts 33°
2026-05-05 05:28 41.42479 -70.32291 12335 ft 374 kts
2026-05-05 05:28 41.45043 -70.32277 13053 ft 368 kts 346°
2026-05-05 05:28 41.47368 -70.33582 13739 ft 363 kts 326°
2026-05-05 05:28 41.49582 -70.35158 13656 ft 360 kts 342°
2026-05-05 05:29 41.52021 -70.35261 13518 ft 349 kts 12°
2026-05-05 05:29 41.54171 -70.33931 13363 ft 335 kts 31°
2026-05-05 05:29 41.55980 -70.32092 13212 ft 319 kts 41°
2026-05-05 05:29 41.57431 -70.29974 13002 ft 308 kts 52°
2026-05-05 05:30 41.58537 -70.27547 12542 ft 306 kts 66°
2026-05-05 05:30 41.59183 -70.24838 12009 ft 307 kts 82°
2026-05-05 05:30 41.59273 -70.22003 11528 ft 304 kts 98°
2026-05-05 05:30 41.58878 -70.19244 11051 ft 300 kts 110°
2026-05-05 05:31 41.58103 -70.16669 10532 ft 298 kts 125°
2026-05-05 05:31 41.56867 -70.14483 10071 ft 292 kts 136°
2026-05-05 05:31 41.55547 -70.12486 9612 ft 289 kts 137°
2026-05-05 05:31 41.54214 -70.10498 9156 ft 285 kts 137°
2026-05-05 05:32 41.52900 -70.08532 8696 ft 282 kts 137°
2026-05-05 05:32 41.51603 -70.06577 8237 ft 280 kts 137°
2026-05-05 05:32 41.50323 -70.04639 7777 ft 277 kts 137°
2026-05-05 05:32 41.49055 -70.02710 7334 ft 275 kts 137°
2026-05-05 05:33 41.47802 -70.00797 6890 ft 273 kts 137°
2026-05-05 05:33 41.46559 -69.98894 6452 ft 271 kts 137°
2026-05-05 05:33 41.45325 -69.97006 5970 ft 269 kts 137°
2026-05-05 05:33 41.44108 -69.95158 5448 ft 268 kts 137°
2026-05-05 05:34 41.42863 -69.93277 5051 ft 265 kts 138°
2026-05-05 05:34 41.41674 -69.91486 4924 ft 257 kts 138°
2026-05-05 05:34 41.40367 -69.89993 4790 ft 239 kts 165°
2026-05-05 05:34 41.38825 -69.89856 4639 ft 215 kts 207°
2026-05-05 05:35 41.37584 -69.90777 4572 ft 197 kts 219°
2026-05-05 05:35 41.36523 -69.91818 4399 ft 184 kts 224°
2026-05-05 05:35 41.35574 -69.92878 4199 ft 171 kts 228°
2026-05-05 05:35 41.34722 -69.93951 3638 ft 177 kts 230°
2026-05-05 05:36 41.33827 -69.95133 2913 ft 184 kts 229°
2026-05-05 05:36 41.32913 -69.96345 2180 ft 187 kts 230°
2026-05-05 05:36 41.32010 -69.97542 1760 ft 171 kts 231°
2026-05-05 05:36 41.31219 -69.98590 1547 ft 147 kts 230°
2026-05-05 05:37 41.30545 -69.99485 1342 ft 127 kts 231°
2026-05-05 05:37 41.29936 -70.00299 1179 ft 125 kts 231°
2026-05-05 05:37 41.29315 -70.01120 1020 ft 128 kts 230°
2026-05-05 05:37 41.28676 -70.01968 845 ft 131 kts 229°
2026-05-05 05:38 41.28036 -70.02820 665 ft 132 kts 230°
2026-05-05 05:38 41.27392 -70.03690 479 ft 135 kts 230°
2026-05-05 05:38 41.26712 -70.04574 325 ft 138 kts 229°
2026-05-05 05:38 41.26055 -70.05479 111 ft 134 kts 226°
2026-05-05 05:39 41.25475 -70.06229 44 ft 70 kts 222°
2026-05-05 05:39 41.25336 -70.06406 42 ft 12 kts 225°
2026-05-05 05:39 41.25295 -70.06461 42 ft 0 kts 225°
2026-05-05 05:39 41.25291 -70.06466 42 ft 1 kts 225°
2026-05-05 05:40 41.25286 -70.06473 39 ft 0 kts 225°
2026-05-05 05:40 41.25279 -70.06482 41 ft 10 kts 225°
2026-05-05 05:40 41.25104 -70.06715 40 ft 82 kts 225°
2026-05-05 05:40 41.24732 -70.07274 40 ft 14 kts 223°
2026-05-05 05:41 41.24729 -70.07277 40 ft 0 kts 217°
2026-05-05 05:41 41.24671 -70.07277 40 ft 20 kts 139°
2026-05-05 05:42 41.24747 -70.07160 41 ft 19 kts 31°
2026-05-05 05:42 41.24819 -70.07088 42 ft 4 kts 43°
2026-05-05 05:42 41.24904 -70.06983 40 ft 56 kts 43°
2026-05-05 05:42 41.25419 -70.06278 44 ft 153 kts 44°
2026-05-05 05:43 41.26208 -70.04992 498 ft 194 kts 63°
2026-05-05 05:43 41.26918 -70.03118 293 ft 240 kts 71°
2026-05-05 05:43 41.27451 -70.01207 302 ft 196 kts 82°
2026-05-05 05:43 41.27638 -69.99602 208 ft 165 kts 99°
2026-05-05 05:44 41.27459 -69.98292 123 ft 130 kts 127°
2026-05-05 05:44 41.26863 -69.96776 964 ft 246 kts 127°
2026-05-05 05:44 41.25896 -69.94898 318 ft 233 kts 138°
2026-05-05 05:44 41.24862 -69.93438 220 ft 200 kts 145°
2026-05-05 05:45 41.23877 -69.92350 93 ft 170 kts 152°
2026-05-05 05:45 41.23041 -69.91500 129 ft 130 kts 158°
2026-05-05 05:45 41.22421 -69.90942 662 ft 410 kts 163°